Worland, WY

4:45 AM MST on February 13, 2016 (GMT -0700)
Worland Municipal

Weather History for KWRL - October, 2012

Change the Weather History Date:

Saturday, October 13, 2012

  Actual Average Record
Temperature  
Mean Temperature 52 °F 47 °F  
Max Temperature 67 °F 62 °F 84 °F (1996)
Min Temperature 37 °F 32 °F 11 °F (2008)
Degree Days  
Heating Degree Days 13 18  
Month to date heating degree days 241 208  
Since 1 July heating degree days 329 465  
Cooling Degree Days 0 0  
Month to date cooling degree days 0 0  
Year to date cooling degree days 901 535  
Growing Degree Days 2 (Base 50)    
Moisture  
Dew Point 34 °F    
Average Humidity 52    
Maximum Humidity 79    
Minimum Humidity 24    
Precipitation  
Precipitation 0.00 in 0.03 in 0.31 in (1975)
Month to date precipitation 0.11 0.38  
Year to date precipitation 1.90 6.68  
Sea Level Pressure  
Sea Level Pressure 29.89 in    
Wind  
Wind Speed 6 mph (East)    
Max Wind Speed 12 mph    
Max Gust Speed -    
Visibility 10 miles    
Events      
T = Trace of Precipitation, MM = Missing Value Source: NWS Daily Summary

Daily Weather History Graph

Daily Weather History Graph

Search for Another Location

Airport or City:

Trip Planner

Search our weather history database for the weather conditions in past years. The results will help you decide how hot, cold, wet, or windy it might be!

Date:

Astronomy

Oct. 13, 2012 Rise Set
Actual Time 7:24 AM MDT 6:30 PM MDT
Civil Twilight 6:55 AM MDT 6:59 PM MDT
Nautical Twilight 6:22 AM MDT 7:32 PM MDT
Astronomical Twilight 5:48 AM MDT 8:06 PM MDT
Moon 5:14 AM MDT 5:17 PM MDT
Length of Visible Light 12h 03m
Length of Day
11h 05m
Waning Crescent, 4% of the Moon is Illuminated
Oct 13
Waning Crescent
Oct 15
New
Oct 21
First Quarter
Oct 29
Full
Nov 6
Last Quarter

Hourly Weather History & Observations

Time (MDT) Temp. Windchill Dew Point Humidity Pressure Visibility Wind Dir Wind Speed Gust Speed Precip Events Conditions
12:53 AM 48.9 °F - 37.9 °F 66% 29.72 in 10.0 mi WSW 4.6 mph - N/A   Clear
1:53 AM 52.0 °F - 37.9 °F 59% 29.71 in 10.0 mi Variable 5.8 mph - N/A   Partly Cloudy
2:53 AM 44.1 °F 42.5 °F 37.0 °F 76% 29.72 in 10.0 mi ESE 3.5 mph - N/A   Clear
3:53 AM 45.0 °F 41.8 °F 36.0 °F 71% 29.73 in 10.0 mi ESE 5.8 mph - N/A   Clear
4:53 AM 39.9 °F 37.8 °F 34.0 °F 79% 29.77 in 10.0 mi ESE 3.5 mph - N/A   Clear
5:53 AM 43.0 °F - 36.0 °F 76% 29.79 in 10.0 mi Calm Calm - N/A   Clear
6:53 AM 39.0 °F 34.0 °F 34.0 °F 82% 29.85 in 10.0 mi South 6.9 mph - N/A   Clear
7:53 AM 39.9 °F 35.1 °F 34.0 °F 79% 29.89 in 10.0 mi SSW 6.9 mph - N/A   Clear
8:53 AM 48.0 °F - 37.0 °F 66% 29.88 in 10.0 mi Calm Calm - N/A   Clear
9:53 AM 53.1 °F - 36.0 °F 52% 29.91 in 10.0 mi SW 5.8 mph - N/A   Clear
10:53 AM 55.9 °F - 37.0 °F 49% 29.90 in 10.0 mi WSW 3.5 mph - N/A   Unknown
11:53 AM 61.0 °F - 33.1 °F 35% 29.88 in 10.0 mi NNE 3.5 mph - N/A   Clear
12:53 PM 64.0 °F - 30.0 °F 28% 29.89 in 10.0 mi North 5.8 mph - N/A   Scattered Clouds
2:53 PM 64.0 °F - 28.0 °F 26% 29.93 in 10.0 mi North 6.9 mph - N/A   Overcast
3:53 PM 66.0 °F - 28.0 °F 24% 29.93 in 9.0 mi NNE 9.2 mph - N/A   Mostly Cloudy
4:53 PM 66.0 °F - 30.9 °F 27% 29.96 in 10.0 mi North 11.5 mph - N/A   Mostly Cloudy
6:53 PM 60.1 °F - 33.1 °F 36% 30.03 in 10.0 mi NNE 6.9 mph - N/A   Mostly Cloudy
8:53 PM 52.0 °F - 33.1 °F 49% 30.07 in 10.0 mi NE 4.6 mph - N/A   Clear
9:53 PM 44.1 °F 40.8 °F 30.9 °F 60% 30.11 in 10.0 mi SSW 5.8 mph - N/A   Clear
11:53 PM 43.0 °F 38.8 °F 30.9 °F 62% 30.13 in 10.0 mi South 6.9 mph - N/A   Clear